Probability
48 84 97 97 94 90 87 74 48 32 19 10 0 0 0 0 0 3 3 6 6 6 10 10 3 0 0 0 0 0 0 0 0 0 0 0 0 0 0 0 0 0 0
48 74 100 100 97 97 90 68 48 29 19 3 0 0 0 0 0 3 0 0 0 3 3 3 3 0 0 0 0 0 0 0 0 0 0 0 0 0 0 0 0 0 0
52 68 94 100 100 97 84 61 35 26 13 6 0 0 0 0 0 3 0 0 0 0 0 0 0 0 0 0 0 0 0 0 0 0 0 0 0 0 0 0 0 0 0
52 71 65 100 100 94 74 52 23 16 6 6 6 3 0 6 6 0 0 0 0 0 0 0 0 0 0 0 0 0 0 0 0 0 0 0 0 0 0 0 0 0 0
71 81 97 100 100 90 71 48 19 16 0 6 10 10 3 3 3 0 0 0 0 0 0 0 0 0 0 0 0 0 0 0 0 0 0 0 0 0 0 0 0 0 0
81 84 97 100 97 90 71 35 19 3 3 3 10 10 6 3 3 0 0 0 0 0 0 0 0 0 0 0 0 0 0 0 0 0 0 0 0 0 0 0 0 0 0
77 84 94 100 97 87 61 32 13 0 3 13 13 13 3 3 3 0 0 0 0 0 0 0 0 0 0 0 0 0 0 0 0 0 0 0 0 0 0 0 0 0 0
71 87 97 100 94 84 58 35 13 3 6 16 16 16 3 0 0 0 0 0 0 0 0 0 0 0 0 0 0 0 0 0 0 0 0 0 0 0 0 0 0 0 0
68 81 90 94 87 71 48 39 19 10 16 26 29 10 0 3 0 0 0 0 0 0 0 0 0 0 0 0 0 0 0 0 0 0 0 0 0 0 0 0 0 0 0
71 81 94 81 61 55 29 6 6 3 10 13 0 0 0 0 0 0 0 0 0 0 0 0 0 0 0 0 0 0 0 0 0 0 0 0 0 0 0 0 0 0 0
65 81 87 77 65 52 26 3 3 0 0 0 0 0 0 0 0 0 0 0 0 0 0 0 0 0 0 0 0 0 0 0 0 0 0 0 0 0 0 0 0 0 0
65 74 74 74 58 39 16 6 6 6 3 0 0 0 0 0 0 0 0 0 0 0 0 0 0 0 0 0 0 0 0 0 0 0 0 0 0 0 0 0 0 0 0
52 55 65 61 48 32 19 13 6 3 6 3 3 0 0 0 0 0 0 0 0 0 0 0 0 0 0 0 0 0 0 0 0 0 0 0 0 0 0 0 0 0 0
35 52 52 65 55 32 19 13 6 3 3 3 3 3 0 0 0 0 0 0 0 0 0 0 0 0 0 0 0 0 0 0 0 0 0 0 0 0 0 0 0 0 0
29 42 52 52 48 39 26 19 3 0 0 0 0 3 0 0 0 0 0 0 0 0 0 0 0 0 0 0 0 0 0 0 0 0 0 0 0 0 0 0 0 0 0
32 32 39 29 26 29 35 16 3 0 0 0 0 0 0 0 0 0 0 0 0 0 0 0 0 0 0 0 0 0 0 0 0 0 0 0 0 0 0 0 0 0 0
42 39 29 19 23 16 23 13 3 0 0 0 0 0 0 0 0 0 0 0 0 0 0 0 0 0 0 0 0 0 0 0 0 0 0 0 0 0 0 0 0 0 0
35 35 19 10 13 19 23 26 19 3 3 0 0 0 0 0 0 0 0 0 0 0 0 0 0 0 0 0 0 0 0 0 0 0 0 0 0 0 0 0 0 0 0
39 39 35 23 23 23 26 29 23 10 6 3 0 0 0 0 0 0 3 3 0 0 0 0 0 0 0 0 0 0 0 0 0 0 0 0 0 0 0 0 0 0 0
13 29 35 32 39 29 26 29 23 13 3 0 3 0 0 0 0 0 3 0 0 0 0 0 0 0 0 0 0 0 0 0 0 0 0 0 0 0 0 0 0 0 0
10 16 23 32 29 29 32 32 23 16 16 6 3 0 0 0 0 0 0 0 0 0 0 0 0 0 0 0 0 0 0 0 0 0 0 0 0 0 0 0 0 0 0
3 6 10 13 16 13 19 19 23 19 13 16 6 0 0 0 0 0 0 0 0 0 0 0 0 0 0 0 0 0 0 0 0 0 0 0 0 0 0 0 0 0 0
0 3 3 6 6 10 13 10 0 3 0 0 0 0 0 0 0 0 0 0 0 0 0 0 0 0 0 0 0 0 0 0 0 0 0 0 0 0 0 0 0 0 0
0 0 0 0 0 0 0 0 3 3 6 3 3 0 0 0 0 0 0 0 0 0 0 0 0 0 0 0 0 0 0 0 0 0 0 0 0 0 0 0 0 0 0
0 0 0 0 0 0 0 0 0 0 3 3 0 0 0 0 0 0 0 0 0 0 0 0 0 0 0 0 0 0 0 0 0 0 0 0 0 0 0 0 0 0 0
0 0 0 0 0 0 0 0 0 0 0 0 0 0 0 0 0 0 0 0 0 0 0 0 0 0 0 0 0 0 0 0 0 0 0 0 0 0 0 0 0 0 0
Height
5897 5898 5899 5900 5901 5902 5902 5903 5903 5903 5904 5904 5904 5903 5903 5902 5902 5901 5901 5900 5899 5899 5898 5897 5896 5895 5894 5893 5892 5891 5890 5888 5887 5885 5884 5883 5881 5879 5878 5876 5874 5872 5871
5895 5896 5898 5899 5900 5901 5901 5902 5902 5903 5903 5903 5903 5903 5902 5902 5901 5901 5900 5899 5899 5898 5897 5896 5896 5895 5893 5892 5891 5890 5889 5887 5886 5884 5883 5881 5880 5878 5876 5875 5873 5871 5869
5894 5895 5896 5897 5898 5899 5900 5901 5901 5902 5902 5902 5902 5902 5902 5901 5901 5900 5899 5898 5898 5897 5896 5896 5895 5894 5892 5891 5890 5889 5887 5886 5885 5883 5882 5880 5878 5877 5875 5873 5871 5869 5867
5892 5893 5894 5896 5897 5898 5899 5900 5900 5901 5901 5901 5901 5901 5901 5900 5900 5899 5898 5898 5897 5896 5895 5895 5894 5892 5891 5890 5889 5888 5886 5885 5884 5882 5880 5879 5877 5875 5873 5871 5869 5868 5866
5890 5891 5893 5894 5895 5896 5897 5898 5899 5899 5900 5900 5900 5900 5900 5899 5899 5898 5898 5897 5896 5895 5894 5893 5892 5891 5890 5889 5888 5886 5885 5884 5882 5881 5879 5877 5875 5873 5871 5869 5868 5866 5863
5888 5889 5891 5892 5894 5895 5896 5897 5897 5898 5899 5899 5899 5899 5899 5898 5898 5897 5897 5896 5895 5894 5893 5892 5891 5890 5889 5888 5886 5885 5884 5882 5881 5879 5877 5875 5873 5871 5869 5867 5865 5863 5861
5885 5887 5889 5890 5892 5893 5894 5895 5896 5896 5897 5897 5898 5898 5898 5897 5897 5896 5895 5895 5894 5893 5892 5891 5890 5889 5887 5886 5885 5883 5882 5880 5879 5877 5875 5873 5871 5869 5867 5865 5863 5860 5858
5882 5885 5887 5888 5890 5891 5892 5893 5894 5895 5895 5896 5896 5896 5896 5896 5895 5895 5894 5893 5892 5891 5890 5889 5888 5887 5886 5884 5883 5882 5880 5878 5876 5874 5872 5870 5868 5866 5864 5862 5859 5857 5855
5879 5882 5884 5886 5887 5889 5890 5891 5892 5893 5893 5894 5894 5894 5894 5894 5894 5893 5892 5892 5891 5890 5889 5887 5886 5885 5883 5882 5881 5879 5878 5876 5874 5872 5870 5868 5865 5863 5861 5858 5856 5853 5851
5876 5878 5881 5883 5885 5886 5888 5889 5890 5891 5891 5892 5892 5892 5892 5892 5892 5891 5891 5890 5889 5888 5887 5885 5884 5882 5881 5880 5878 5877 5875 5873 5871 5869 5866 5864 5862 5859 5857 5854 5852 5849 5847
5872 5875 5877 5880 5882 5883 5885 5886 5887 5888 5889 5889 5890 5890 5890 5890 5889 5889 5888 5888 5887 5886 5885 5883 5882 5880 5879 5877 5875 5874 5872 5870 5868 5865 5863 5861 5858 5856 5853 5850 5848 5845 5843
5868 5871 5873 5876 5878 5880 5882 5883 5884 5885 5886 5887 5887 5887 5887 5887 5887 5887 5886 5885 5884 5883 5882 5881 5879 5878 5876 5874 5872 5871 5868 5866 5864 5862 5860 5857 5854 5852 5849 5846 5843 5841 5838
5863 5866 5869 5872 5874 5876 5878 5880 5881 5882 5883 5884 5884 5884 5884 5884 5884 5884 5883 5882 5882 5881 5879 5878 5876 5875 5873 5871 5869 5867 5865 5862 5860 5858 5855 5853 5850 5847 5844 5841 5838 5836 5833
5859 5862 5865 5868 5870 5872 5874 5876 5877 5878 5880 5880 5881 5881 5881 5881 5881 5881 5880 5879 5878 5877 5876 5875 5873 5871 5870 5868 5866 5864 5861 5859 5856 5853 5851 5848 5845 5842 5839 5836 5833 5830 5827
5854 5857 5860 5863 5865 5868 5870 5871 5873 5874 5875 5876 5877 5877 5877 5877 5877 5877 5876 5876 5875 5874 5872 5871 5869 5868 5866 5864 5862 5859 5857 5854 5851 5848 5846 5843 5839 5836 5833 5830 5827 5824 5821
5848 5852 5855 5858 5860 5863 5865 5867 5868 5870 5871 5872 5873 5873 5873 5873 5873 5873 5872 5871 5871 5869 5868 5867 5865 5863 5861 5859 5857 5855 5852 5849 5846 5843 5840 5837 5834 5830 5827 5824 5821 5818 5815
5842 5846 5849 5852 5855 5857 5859 5861 5863 5865 5866 5867 5868 5868 5868 5869 5869 5868 5868 5867 5866 5865 5863 5862 5860 5858 5856 5854 5852 5849 5847 5844 5841 5837 5834 5830 5827 5824 5820 5817 5814 5811 5808
5836 5840 5843 5846 5849 5851 5854 5856 5858 5859 5860 5861 5862 5863 5863 5863 5863 5863 5862 5861 5861 5859 5858 5856 5855 5853 5850 5848 5846 5843 5840 5837 5834 5831 5827 5823 5820 5817 5813 5810 5807 5804 5801
5830 5833 5837 5840 5842 5845 5847 5849 5851 5853 5854 5855 5856 5857 5858 5858 5858 5857 5856 5856 5855 5854 5852 5851 5849 5847 5844 5842 5839 5836 5833 5830 5827 5823 5819 5816 5812 5809 5805 5802 5799 5796 5793
5823 5827 5830 5833 5836 5838 5841 5843 5845 5847 5848 5849 5850 5851 5851 5851 5851 5851 5850 5849 5848 5847 5846 5844 5842 5840 5838 5835 5832 5830 5826 5823 5819 5815 5812 5808 5804 5801 5797 5794 5790 5787 5784
5816 5820 5823 5826 5828 5831 5834 5836 5838 5840 5841 5842 5843 5844 5844 5845 5844 5844 5844 5842 5841 5840 5839 5837 5835 5833 5830 5827 5825 5822 5820 5816 5812 5807 5804 5800 5796 5792 5789 5785 5782 5779 5776
5809 5812 5815 5818 5821 5824 5826 5828 5830 5832 5834 5835 5836 5837 5837 5837 5837 5837 5836 5835 5834 5833 5831 5829 5827 5825 5823 5820 5817 5814 5812 5810 5805 5800 5795 5791 5787 5783 5780 5776 5773 5770 5767
5800 5804 5808 5810 5813 5816 5818 5820 5822 5824 5825 5827 5828 5829 5829 5829 5829 5829 5828 5827 5826 5825 5823 5821 5819 5817 5815 5812 5808 5805 5802 5800 5797 5794 5789 5783 5778 5774 5771 5768 5764 5761 5758
5792 5795 5799 5802 5805 5808 5810 5812 5814 5815 5817 5818 5819 5820 5820 5821 5821 5820 5819 5819 5818 5816 5815 5813 5811 5808 5806 5803 5800 5797 5793 5790 5787 5785 5781 5776 5771 5766 5762 5758 5755 5752 5749
5783 5787 5790 5793 5796 5799 5801 5803 5805 5806 5808 5809 5810 5811 5811 5812 5811 5811 5810 5810 5809 5807 5806 5804 5802 5799 5797 5794 5791 5788 5785 5781 5777 5774 5771 5767 5763 5758 5753 5749 5746 5743 5739
5774 5777 5780 5783 5786 5789 5791 5793 5795 5797 5798 5799 5800 5801 5802 5802 5802 5801 5801 5800 5799 5797 5796 5794 5792 5790 5787 5785 5781 5778 5775 5772 5768 5764 5761 5757 5753 5749 5745 5741 5737 5733 5730
Wind_Speed
14 13 11 10 9 7 6 6 5 4 4 4 3 2 2 2 3 4 5 5 5 6 6 6 6 7 7 8 9 9 10 11 11 12 13 14 14 15 16 16 17 17 18
15 13 12 10 9 7 6 6 5 5 4 3 3 2 2 3 4 5 5 5 6 6 6 6 7 7 8 9 9 10 11 11 12 13 13 14 15 16 17 17 18 18 18
15 14 12 11 10 8 7 6 6 5 4 4 3 2 2 3 4 5 5 6 6 6 6 7 7 8 9 10 10 11 11 12 13 13 14 15 16 17 18 18 19 19 19
16 14 13 12 10 9 8 7 6 5 4 4 3 2 3 4 5 5 6 6 6 6 7 7 8 9 10 11 11 11 12 13 14 15 16 16 17 18 19 19 20 20 20
17 15 14 13 11 10 9 8 7 6 5 4 3 3 3 4 5 6 6 6 7 7 7 8 9 9 10 11 12 12 13 14 15 16 17 18 19 19 20 20 21 22 22
18 17 15 14 13 11 10 9 8 7 6 5 4 4 4 5 6 6 6 7 7 8 8 9 10 10 11 12 13 13 14 15 16 17 18 19 20 21 21 22 22 23 23
20 18 17 15 14 13 11 10 9 8 7 6 5 5 5 6 6 7 7 8 8 9 9 10 10 11 12 13 13 14 15 16 17 18 19 20 21 22 22 23 24 24 25
22 20 18 17 16 14 13 11 10 9 8 7 7 7 7 7 7 7 8 8 9 10 10 11 12 12 13 14 15 16 17 18 19 20 20 21 22 23 24 24 25 25 26
23 21 20 19 17 16 14 12 11 10 9 8 8 8 8 8 8 8 9 9 10 11 11 12 13 13 14 15 16 17 18 19 20 21 22 23 24 25 25 26 27 27 27
25 23 22 21 19 17 16 14 12 11 10 9 9 9 9 9 9 9 10 10 11 12 12 13 14 15 16 16 17 18 19 20 21 22 23 24 25 26 27 28 28 29 29
27 25 24 23 21 19 17 16 14 13 12 11 10 10 10 10 10 11 11 11 12 13 13 14 15 16 17 18 19 20 21 22 23 24 25 26 27 28 29 30 30 31 31
29 27 26 25 23 21 19 17 16 14 13 12 12 12 12 11 12 12 12 13 13 14 14 15 16 17 18 19 21 22 23 24 25 26 27 28 29 30 31 32 32 32 33
32 30 29 27 25 23 21 20 18 16 15 14 14 13 13 13 13 13 13 14 14 15 16 17 18 19 20 21 22 24 25 26 27 28 29 30 32 33 33 34 34 34 34
35 32 31 29 27 25 24 22 20 18 17 17 16 16 15 15 15 15 15 16 16 17 17 18 20 21 22 23 24 26 27 28 30 31 32 33 34 34 35 35 36 35 35
37 35 33 31 29 28 26 25 23 21 20 19 19 18 18 18 18 18 18 18 19 19 20 21 22 23 24 25 27 28 29 30 32 33 34 35 36 36 37 37 37 37 37
38 37 35 34 32 30 29 27 26 24 23 22 22 21 21 21 21 21 21 21 21 22 22 23 24 25 27 28 29 30 31 32 34 35 36 37 38 38 38 38 38 38 37
40 39 37 36 34 33 32 30 28 27 26 25 24 24 24 24 23 24 24 24 24 25 25 26 27 28 29 30 32 33 34 35 36 37 38 39 39 39 39 39 39 38 38
41 40 39 38 37 36 35 33 31 30 29 28 27 27 27 26 26 26 27 27 27 27 28 29 30 31 32 33 34 35 36 37 38 39 40 40 41 40 40 40 40 39 38
42 42 41 40 39 38 37 36 34 33 32 31 30 30 29 29 29 29 30 30 30 31 31 32 33 34 35 36 37 37 38 39 40 41 42 42 42 42 42 41 40 40 39
44 43 42 42 41 40 39 38 37 36 35 34 33 33 32 32 32 32 33 33 33 34 34 35 36 36 37 38 39 39 40 41 42 42 43 43 43 43 43 42 41 40 40
46 45 43 43 43 42 42 41 40 39 38 37 37 36 36 35 35 35 36 36 36 36 37 38 38 39 39 41 41 41 41 42 42 43 43 44 44 44 43 42 41 41 40
48 47 46 45 44 44 44 43 43 42 41 40 40 39 39 39 38 38 38 39 39 39 39 40 41 41 42 42 43 44 42 42 42 43 44 44 44 44 43 42 42 41 41
49 49 48 47 47 46 46 46 45 45 44 43 43 42 41 41 41 41 41 41 41 41 41 42 43 43 43 44 44 45 45 44 43 42 42 43 43 43 43 42 42 41 40
50 50 50 50 49 49 48 47 47 46 46 45 44 44 44 44 44 44 44 43 43 43 43 44 44 45 45 44 44 45 46 46 46 45 43 42 42 42 42 42 41 41 40
50 50 50 51 50 50 50 49 48 47 47 47 47 47 47 46 45 45 45 45 45 45 45 45 45 45 45 45 46 46 46 46 46 46 44 42 41 41 41 41 41 41 40
51 51 51 51 51 51 51 50 50 49 49 49 49 49 48 48 47 47 47 47 47 47 47 47 47 47 47 47 47 47 46 46 46 45 44 43 42 41 41 41 41 40 40
Wind_Direction
226 225 223 222 221 222 226 232 235 239 242 242 246 261 302 334 344 346 350 350 347 347 346 344 341 339 340 340 338 336 335 335 334 333 334 334 333 332 331 329 327 326 325
229 230 229 228 227 227 230 232 234 236 237 239 248 268 314 338 344 346 345 345 344 343 342 339 337 336 338 338 336 335 335 335 335 335 334 333 332 331 330 328 327 326 324
232 233 233 233 231 230 229 230 232 232 234 239 249 275 320 335 340 342 343 343 341 339 338 335 334 336 337 336 334 333 334 335 334 334 333 332 331 329 328 327 325 324 322
232 235 235 234 233 230 228 228 226 227 232 238 250 283 317 329 334 338 340 341 339 336 335 334 334 335 336 334 333 332 333 333 333 332 331 329 328 327 325 324 322 321 320
232 235 234 233 231 228 227 226 225 229 233 237 254 284 308 320 328 332 335 337 337 335 333 332 333 333 333 333 332 331 330 331 330 330 329 328 326 325 323 322 321 319 318
231 233 233 231 228 226 224 225 228 232 235 242 259 283 300 311 321 327 330 331 332 333 333 331 332 332 331 330 330 329 328 328 328 327 326 326 324 323 322 321 320 318 317
229 231 231 230 226 224 223 224 227 232 239 249 265 282 294 306 315 321 324 327 329 331 332 333 332 331 330 330 329 327 326 325 325 325 325 324 323 322 321 320 319 318 317
229 229 230 228 225 222 222 224 228 233 240 250 265 280 291 302 311 316 321 324 326 327 329 330 330 329 329 328 327 325 324 323 323 322 322 322 321 321 320 319 318 317 316
230 228 228 226 224 222 221 224 228 234 241 251 263 275 286 296 305 311 317 319 321 323 326 327 327 327 327 326 325 324 323 322 321 321 321 320 320 319 318 318 317 316 316
231 229 228 225 223 223 223 225 229 235 242 251 261 272 281 290 299 306 311 314 316 319 321 322 323 323 323 322 322 321 321 320 319 319 319 318 318 317 316 316 315 315 314
232 231 229 226 224 224 226 228 231 237 243 249 259 268 276 284 293 300 305 309 312 314 315 316 317 317 317 317 317 317 317 317 317 316 316 316 315 314 314 314 314 313 313
232 232 230 228 226 227 229 231 234 239 244 250 257 265 272 279 286 292 297 302 305 308 309 310 311 312 312 312 313 313 314 314 314 314 314 313 313 313 312 312 312 312 311
231 231 230 229 229 229 231 233 236 241 247 252 258 265 271 276 282 287 292 296 299 302 304 306 307 308 309 309 310 310 311 311 311 312 312 312 312 311 311 311 310 310 310
232 231 230 230 230 231 233 236 239 244 249 254 260 265 270 275 279 284 289 293 296 298 300 302 304 305 305 305 306 307 308 309 310 310 311 311 311 310 310 310 310 309 309
232 232 231 231 232 233 235 239 242 246 251 255 260 265 270 274 278 282 286 290 293 295 297 299 300 301 302 303 304 305 306 307 308 309 309 309 309 309 309 308 308 308 308
232 232 232 232 233 235 237 240 244 248 252 257 261 265 270 274 277 281 284 287 290 293 294 296 297 298 299 301 302 303 304 305 306 307 308 308 308 308 308 307 307 307 307
232 233 234 234 235 237 239 242 245 249 253 258 262 266 270 274 277 280 283 286 289 291 292 293 294 296 297 299 300 301 302 304 305 305 306 306 307 307 306 306 306 306 305
233 234 235 236 237 238 240 243 246 250 254 259 262 266 270 274 277 279 281 285 287 289 290 292 293 294 296 297 299 300 302 303 304 305 305 306 306 306 305 305 304 304 303
234 235 236 237 238 239 241 244 247 251 255 259 262 266 270 273 276 278 281 283 286 287 289 290 292 293 295 296 298 299 301 302 304 305 305 305 305 305 304 303 303 303 302
234 236 237 238 239 241 243 245 248 252 255 259 263 266 270 273 275 277 280 283 285 286 288 289 290 292 293 295 297 298 300 301 303 304 304 305 304 304 303 302 302 301 301
235 237 239 240 241 242 244 247 249 253 256 260 263 266 269 272 275 277 279 281 283 285 286 288 289 291 293 295 296 297 299 300 302 302 303 303 302 301 301 300 300 300 300
235 237 239 241 243 245 246 248 251 254 257 260 263 266 269 272 274 276 278 280 282 283 285 286 288 290 292 294 295 296 297 298 300 301 302 301 300 299 299 299 298 298 298
236 237 239 242 244 247 250 251 252 254 257 260 263 266 268 271 273 275 277 279 280 281 283 285 287 289 291 292 294 296 297 298 298 299 298 298 297 297 296 297 297 297 297
238 240 241 243 246 248 250 251 252 254 257 260 263 265 267 269 272 274 276 277 278 280 282 284 286 288 289 291 293 295 296 297 298 298 297 296 295 295 295 296 296 297 296
240 241 243 244 246 248 250 251 252 254 257 259 262 264 266 268 270 272 274 276 277 279 281 283 285 287 288 290 292 294 295 296 297 298 298 296 295 294 294 295 296 296 296
242 243 244 245 246 247 249 251 252 254 257 259 261 263 265 267 269 271 273 275 277 278 280 282 284 285 287 290 292 293 294 295 296 296 296 296 295 294 293 294 295 295 295